FAB2009 SBTF-SBMN

Flight info

Callsign FAB2009
Flight time 0h 57m
Altitude 21000
Route DCT
Aircraft C97/L-SDE3/C

Departure

Time 2026-04-26 12:06
Airport Tefé Airport (SBTF)

Arrival

Time 2026-04-26 13:04
Airport Ponta Pelada Airport / Manaus Air Base (SBMN)
Time Latitude Longitude Altitude Speed Heading
2026-04-26 11:59 -3.38064 -64.72400 194 ft 0 kts 44°
2026-04-26 12:01 -3.38063 -64.72399 194 ft 0 kts 44°
2026-04-26 12:01 -3.38066 -64.72401 194 ft 2 kts 44°
2026-04-26 12:02 -3.38082 -64.72404 194 ft 3 kts 324°
2026-04-26 12:02 -3.38084 -64.72402 194 ft 0 kts 313°
2026-04-26 12:02 -3.38086 -64.72424 194 ft 3 kts 199°
2026-04-26 12:03 -3.38126 -64.72419 194 ft 12 kts 213°
2026-04-26 12:03 -3.38189 -64.72490 194 ft 9 kts 263°
2026-04-26 12:03 -3.38146 -64.72549 194 ft 19 kts 317°
2026-04-26 12:03 -3.38066 -64.72622 194 ft 15 kts 317°
2026-04-26 12:04 -3.37986 -64.72695 194 ft 15 kts 318°
2026-04-26 12:04 -3.37907 -64.72766 194 ft 16 kts 319°
2026-04-26 12:04 -3.37831 -64.72835 194 ft 15 kts 317°
2026-04-26 12:04 -3.37752 -64.72906 194 ft 14 kts 318°
2026-04-26 12:05 -3.37674 -64.72977 194 ft 16 kts 324°
2026-04-26 12:05 -3.37588 -64.73035 194 ft 16 kts 326°
2026-04-26 12:05 -3.37569 -64.73067 194 ft 2 kts 192°
2026-04-26 12:05 -3.37579 -64.73062 194 ft 0 kts 137°
2026-04-26 12:06 -3.37661 -64.72987 194 ft 57 kts 138°
2026-04-26 12:06 -3.38158 -64.72534 250 ft 117 kts 137°
2026-04-26 12:06 -3.38826 -64.71946 560 ft 144 kts 141°
2026-04-26 12:06 -3.39381 -64.71506 859 ft 158 kts 141°
2026-04-26 12:07 -3.40271 -64.70740 1280 ft 177 kts 137°
2026-04-26 12:07 -3.41004 -64.69709 1662 ft 193 kts 111°
2026-04-26 12:07 -3.41266 -64.68342 2080 ft 206 kts 94°
2026-04-26 12:07 -3.41272 -64.66371 2599 ft 220 kts 88°
2026-04-26 12:08 -3.41222 -64.65325 2881 ft 224 kts 87°
2026-04-26 12:08 -3.41129 -64.63765 3307 ft 229 kts 86°
2026-04-26 12:08 -3.41048 -64.62441 3661 ft 233 kts 86°
2026-04-26 12:08 -3.40952 -64.60789 4094 ft 237 kts 86°
2026-04-26 12:09 -3.40864 -64.59144 4516 ft 241 kts 85°
2026-04-26 12:09 -3.40777 -64.57447 4944 ft 245 kts 85°
2026-04-26 12:09 -3.40692 -64.55716 5373 ft 250 kts 85°
2026-04-26 12:09 -3.40608 -64.53968 5797 ft 255 kts 85°
2026-04-26 12:10 -3.40523 -64.52197 6219 ft 260 kts 86°
2026-04-26 12:10 -3.40436 -64.50355 6650 ft 265 kts 87°
2026-04-26 12:10 -3.40351 -64.48509 7076 ft 271 kts 87°
2026-04-26 12:10 -3.40268 -64.46597 7508 ft 276 kts 87°
2026-04-26 12:11 -3.40184 -64.44660 7937 ft 280 kts 87°
2026-04-26 12:11 -3.40100 -64.42694 8367 ft 283 kts 87°
2026-04-26 12:11 -3.40017 -64.40734 8789 ft 286 kts 87°
2026-04-26 12:11 -3.39931 -64.38720 9220 ft 288 kts 87°
2026-04-26 12:12 -3.39846 -64.36728 9642 ft 290 kts 87°
2026-04-26 12:12 -3.39758 -64.34680 10074 ft 292 kts 87°
2026-04-26 12:12 -3.39671 -64.32654 10498 ft 294 kts 87°
2026-04-26 12:12 -3.39613 -64.31292 10782 ft 295 kts 87°
2026-04-26 12:13 -3.39496 -64.28559 11348 ft 297 kts 87°
2026-04-26 12:13 -3.39406 -64.26479 11777 ft 298 kts 87°
2026-04-26 12:13 -3.39317 -64.24415 12200 ft 299 kts 87°
2026-04-26 12:13 -3.39227 -64.22331 12625 ft 301 kts 87°
2026-04-26 12:14 -3.39136 -64.20222 13054 ft 302 kts 87°
2026-04-26 12:14 -3.39045 -64.18112 13480 ft 304 kts 87°
2026-04-26 12:14 -3.38954 -64.15989 13908 ft 305 kts 87°
2026-04-26 12:14 -3.38862 -64.13867 14332 ft 306 kts 87°
2026-04-26 12:15 -3.38770 -64.11740 14757 ft 308 kts 87°
2026-04-26 12:15 -3.38677 -64.09602 15181 ft 309 kts 87°
2026-04-26 12:15 -3.38584 -64.07439 15608 ft 310 kts 87°
2026-04-26 12:15 -3.38491 -64.05303 16029 ft 311 kts 87°
2026-04-26 12:16 -3.38396 -64.03117 16459 ft 311 kts 87°
2026-04-26 12:16 -3.38303 -64.00972 16881 ft 311 kts 87°
2026-04-26 12:16 -3.38209 -63.98795 17309 ft 311 kts 87°
2026-04-26 12:16 -3.38116 -63.96647 17732 ft 310 kts 87°
2026-04-26 12:17 -3.38023 -63.94506 18153 ft 310 kts 87°
2026-04-26 12:17 -3.37928 -63.92332 18582 ft 310 kts 87°
2026-04-26 12:17 -3.37836 -63.90200 19002 ft 309 kts 87°
2026-04-26 12:17 -3.37741 -63.88032 19430 ft 309 kts 87°
2026-04-26 12:18 -3.37648 -63.85894 19853 ft 308 kts 87°
2026-04-26 12:18 -3.37555 -63.83758 20277 ft 308 kts 87°
2026-04-26 12:18 -3.37463 -63.81632 20699 ft 307 kts 87°
2026-04-26 12:18 -3.37368 -63.79451 20905 ft 315 kts 87°
2026-04-26 12:19 -3.37271 -63.77244 20989 ft 323 kts 87°
2026-04-26 12:19 -3.37172 -63.74977 21005 ft 331 kts 87°
2026-04-26 12:19 -3.37070 -63.72647 21004 ft 336 kts 87°
2026-04-26 12:19 -3.36968 -63.70309 21003 ft 340 kts 87°
2026-04-26 12:20 -3.36863 -63.67917 21002 ft 343 kts 87°
2026-04-26 12:20 -3.36759 -63.65532 21001 ft 345 kts 87°
2026-04-26 12:20 -3.36654 -63.63138 21001 ft 346 kts 87°
2026-04-26 12:20 -3.36549 -63.60733 21000 ft 347 kts 87°
2026-04-26 12:21 -3.36443 -63.58317 21000 ft 347 kts 87°
2026-04-26 12:21 -3.36337 -63.55899 21000 ft 348 kts 87°
2026-04-26 12:21 -3.36231 -63.53464 21000 ft 348 kts 87°
2026-04-26 12:21 -3.36125 -63.51054 21000 ft 348 kts 87°
2026-04-26 12:22 -3.36019 -63.48642 21000 ft 348 kts 87°
2026-04-26 12:22 -3.35913 -63.46228 21000 ft 348 kts 87°
2026-04-26 12:22 -3.35806 -63.43783 21000 ft 349 kts 87°
2026-04-26 12:22 -3.35700 -63.41376 21000 ft 349 kts 87°
2026-04-26 12:23 -3.35594 -63.38961 21000 ft 349 kts 87°
2026-04-26 12:23 -3.35487 -63.36538 21000 ft 349 kts 87°
2026-04-26 12:23 -3.35380 -63.34119 21000 ft 349 kts 87°
2026-04-26 12:23 -3.35273 -63.31672 21000 ft 349 kts 87°
2026-04-26 12:24 -3.35166 -63.29254 21000 ft 349 kts 87°
2026-04-26 12:24 -3.35059 -63.26842 21000 ft 349 kts 87°
2026-04-26 12:24 -3.34952 -63.24416 21000 ft 349 kts 87°
2026-04-26 12:25 -3.34737 -63.19552 21000 ft 349 kts 87°
2026-04-26 12:25 -3.34631 -63.17135 21000 ft 349 kts 87°
2026-04-26 12:25 -3.34524 -63.14716 21000 ft 349 kts 87°
2026-04-26 12:25 -3.34417 -63.12301 21000 ft 349 kts 87°
2026-04-26 12:26 -3.34308 -63.09846 21000 ft 349 kts 87°
2026-04-26 12:26 -3.34202 -63.07449 21000 ft 349 kts 87°
2026-04-26 12:26 -3.34094 -63.05023 21000 ft 349 kts 87°
2026-04-26 12:26 -3.33986 -63.02586 21000 ft 349 kts 87°
2026-04-26 12:27 -3.33879 -63.00173 21000 ft 349 kts 87°
2026-04-26 12:27 -3.33771 -62.97755 21000 ft 349 kts 87°
2026-04-26 12:27 -3.33662 -62.95307 21000 ft 349 kts 87°
2026-04-26 12:27 -3.33554 -62.92870 21000 ft 349 kts 87°
2026-04-26 12:28 -3.33447 -62.90466 21000 ft 349 kts 87°
2026-04-26 12:28 -3.33339 -62.88042 21000 ft 349 kts 87°
2026-04-26 12:28 -3.33230 -62.85596 21000 ft 349 kts 87°
2026-04-26 12:28 -3.33123 -62.83191 21000 ft 349 kts 87°
2026-04-26 12:29 -3.33014 -62.80757 21000 ft 349 kts 87°
2026-04-26 12:29 -3.32907 -62.78349 21000 ft 349 kts 87°
2026-04-26 12:29 -3.32690 -62.73483 21000 ft 349 kts 87°
2026-04-26 12:30 -3.32582 -62.71074 21000 ft 349 kts 87°
2026-04-26 12:30 -3.32473 -62.68626 21000 ft 349 kts 87°
2026-04-26 12:30 -3.32365 -62.66213 21000 ft 349 kts 87°
2026-04-26 12:31 -3.32147 -62.61357 21000 ft 349 kts 87°
2026-04-26 12:31 -3.32038 -62.58929 21000 ft 349 kts 87°
2026-04-26 12:31 -3.31930 -62.56521 21000 ft 349 kts 87°
2026-04-26 12:31 -3.31821 -62.54093 21000 ft 349 kts 87°
2026-04-26 12:32 -3.31712 -62.51652 21000 ft 349 kts 87°
2026-04-26 12:32 -3.31603 -62.49227 21000 ft 349 kts 87°
2026-04-26 12:32 -3.31385 -62.44376 21000 ft 349 kts 87°
2026-04-26 12:33 -3.31276 -62.41965 21000 ft 349 kts 87°
2026-04-26 12:33 -3.31168 -62.39547 21000 ft 349 kts 87°
2026-04-26 12:33 -3.31058 -62.37108 21000 ft 349 kts 87°
2026-04-26 12:33 -3.30948 -62.34677 21000 ft 349 kts 87°
2026-04-26 12:34 -3.30839 -62.32261 21000 ft 349 kts 87°
2026-04-26 12:34 -3.30729 -62.29818 21000 ft 349 kts 87°
2026-04-26 12:34 -3.30620 -62.27395 21000 ft 349 kts 87°
2026-04-26 12:34 -3.30511 -62.24986 21000 ft 349 kts 87°
2026-04-26 12:35 -3.30401 -62.22556 21000 ft 349 kts 87°
2026-04-26 12:35 -3.30291 -62.20125 21000 ft 349 kts 87°
2026-04-26 12:35 -3.30182 -62.17712 21000 ft 349 kts 87°
2026-04-26 12:35 -3.30072 -62.15293 21000 ft 349 kts 87°
2026-04-26 12:36 -3.29962 -62.12851 21000 ft 349 kts 87°
2026-04-26 12:36 -3.29851 -62.10410 21000 ft 349 kts 87°
2026-04-26 12:36 -3.29741 -62.07985 21000 ft 349 kts 87°
2026-04-26 12:36 -3.29632 -62.05579 21000 ft 349 kts 87°
2026-04-26 12:37 -3.29522 -62.03141 21000 ft 349 kts 87°
2026-04-26 12:37 -3.29412 -62.00733 21000 ft 349 kts 87°
2026-04-26 12:37 -3.29301 -61.98293 21000 ft 349 kts 87°
2026-04-26 12:37 -3.29191 -61.95859 21000 ft 349 kts 87°
2026-04-26 12:38 -3.29081 -61.93450 21000 ft 349 kts 87°
2026-04-26 12:38 -3.28971 -61.91037 20863 ft 344 kts 87°
2026-04-26 12:38 -3.28862 -61.88628 20597 ft 344 kts 87°
2026-04-26 12:38 -3.28754 -61.86269 20348 ft 343 kts 87°
2026-04-26 12:39 -3.28645 -61.83867 20096 ft 343 kts 87°
2026-04-26 12:39 -3.28536 -61.81483 19846 ft 343 kts 87°
2026-04-26 12:39 -3.28428 -61.79107 19598 ft 343 kts 87°
2026-04-26 12:39 -3.28319 -61.76730 19349 ft 343 kts 87°
2026-04-26 12:40 -3.28210 -61.74340 19098 ft 343 kts 87°
2026-04-26 12:40 -3.28100 -61.71938 18846 ft 343 kts 87°
2026-04-26 12:40 -3.27992 -61.69561 18597 ft 344 kts 87°
2026-04-26 12:40 -3.27883 -61.67196 18350 ft 344 kts 87°
2026-04-26 12:41 -3.27773 -61.64793 18098 ft 344 kts 87°
2026-04-26 12:41 -3.27664 -61.62394 17847 ft 344 kts 87°
2026-04-26 12:41 -3.27555 -61.60022 17599 ft 343 kts 87°
2026-04-26 12:41 -3.27445 -61.57630 17348 ft 343 kts 87°
2026-04-26 12:42 -3.27337 -61.55265 17100 ft 343 kts 87°
2026-04-26 12:42 -3.27226 -61.52861 16848 ft 343 kts 87°
2026-04-26 12:42 -3.27117 -61.50469 16597 ft 343 kts 87°
2026-04-26 12:42 -3.27008 -61.48108 16349 ft 342 kts 87°
2026-04-26 12:43 -3.26899 -61.45723 16099 ft 342 kts 87°
2026-04-26 12:43 -3.26788 -61.43329 15847 ft 342 kts 87°
2026-04-26 12:43 -3.26680 -61.40975 15599 ft 342 kts 87°
2026-04-26 12:43 -3.26571 -61.38596 15349 ft 342 kts 87°
2026-04-26 12:44 -3.26461 -61.36214 15098 ft 341 kts 87°
2026-04-26 12:44 -3.26351 -61.33836 14847 ft 341 kts 87°
2026-04-26 12:44 -3.26242 -61.31464 14597 ft 341 kts 87°
2026-04-26 12:44 -3.26134 -61.29118 14349 ft 340 kts 87°
2026-04-26 12:45 -3.26026 -61.26770 14097 ft 332 kts 87°
2026-04-26 12:45 -3.25920 -61.24479 13844 ft 325 kts 87°
2026-04-26 12:45 -3.25816 -61.22228 13592 ft 321 kts 87°
2026-04-26 12:45 -3.25715 -61.20034 13343 ft 317 kts 87°
2026-04-26 12:46 -3.25613 -61.17826 13091 ft 315 kts 87°
2026-04-26 12:46 -3.25512 -61.15656 12842 ft 313 kts 87°
2026-04-26 12:46 -3.25445 -61.14208 12675 ft 312 kts 87°
2026-04-26 12:46 -3.25345 -61.12038 12424 ft 311 kts 87°
2026-04-26 12:47 -3.25244 -61.09870 12172 ft 310 kts 87°
2026-04-26 12:47 -3.25146 -61.07740 11924 ft 309 kts 87°
2026-04-26 12:47 -3.25013 -61.04883 11590 ft 307 kts 87°
2026-04-26 12:47 -3.24947 -61.03452 11422 ft 307 kts 87°
2026-04-26 12:48 -3.24848 -61.01317 11171 ft 306 kts 87°
2026-04-26 12:48 -3.24749 -60.99184 10920 ft 305 kts 87°
2026-04-26 12:48 -3.24651 -60.97084 10672 ft 304 kts 87°
2026-04-26 12:48 -3.24553 -60.94968 10421 ft 303 kts 87°
2026-04-26 12:49 -3.24456 -60.92880 10173 ft 303 kts 87°
2026-04-26 12:49 -3.24357 -60.90765 9921 ft 302 kts 87°
2026-04-26 12:49 -3.24261 -60.88687 9673 ft 301 kts 87°
2026-04-26 12:49 -3.24163 -60.86580 9421 ft 300 kts 87°
2026-04-26 12:50 -3.24065 -60.84490 9170 ft 299 kts 87°
2026-04-26 12:50 -3.23969 -60.82429 8922 ft 299 kts 87°
2026-04-26 12:50 -3.23872 -60.80343 8670 ft 298 kts 87°
2026-04-26 12:50 -3.23775 -60.78267 8419 ft 297 kts 87°
2026-04-26 12:51 -3.23680 -60.76226 8172 ft 296 kts 87°
2026-04-26 12:51 -3.23584 -60.74177 7936 ft 293 kts 87°
2026-04-26 12:51 -3.23489 -60.72134 7684 ft 291 kts 87°
2026-04-26 12:51 -3.23395 -60.70129 7435 ft 290 kts 87°
2026-04-26 12:52 -3.23301 -60.68114 7184 ft 288 kts 87°
2026-04-26 12:52 -3.23209 -60.66139 6936 ft 286 kts 87°
2026-04-26 12:52 -3.23115 -60.64138 6684 ft 285 kts 87°
2026-04-26 12:52 -3.23024 -60.62183 6436 ft 283 kts 87°
2026-04-26 12:53 -3.22934 -60.60211 6185 ft 282 kts 86°
2026-04-26 12:53 -3.22845 -60.58258 5934 ft 279 kts 86°
2026-04-26 12:53 -3.22756 -60.56318 5683 ft 277 kts 86°
2026-04-26 12:53 -3.22668 -60.54412 5434 ft 274 kts 85°
2026-04-26 12:54 -3.22579 -60.52533 5186 ft 271 kts 85°
2026-04-26 12:54 -3.22490 -60.50656 4935 ft 268 kts 85°
2026-04-26 12:54 -3.22401 -60.48799 4683 ft 265 kts 86°
2026-04-26 12:54 -3.22313 -60.46962 4432 ft 262 kts 86°
2026-04-26 12:55 -3.22226 -60.45167 4183 ft 259 kts 86°
2026-04-26 12:55 -3.22140 -60.43370 3932 ft 256 kts 86°
2026-04-26 12:55 -3.22055 -60.41613 3683 ft 254 kts 87°
2026-04-26 12:55 -3.21970 -60.39840 3431 ft 252 kts 87°
2026-04-26 12:56 -3.21888 -60.38085 3180 ft 251 kts 87°
2026-04-26 12:56 -3.21808 -60.36356 3017 ft 246 kts 87°
2026-04-26 12:56 -3.21730 -60.34676 2928 ft 241 kts 87°
2026-04-26 12:56 -3.21654 -60.33024 2903 ft 234 kts 87°
2026-04-26 12:57 -3.21578 -60.31403 2899 ft 230 kts 87°
2026-04-26 12:57 -3.21505 -60.29832 2899 ft 231 kts 87°
2026-04-26 12:57 -3.21428 -60.28195 2903 ft 239 kts 87°
2026-04-26 12:58 -3.21073 -60.24812 2902 ft 246 kts 82°
2026-04-26 12:58 -3.20798 -60.23150 2898 ft 238 kts 79°
2026-04-26 12:58 -3.20467 -60.21590 2902 ft 220 kts 77°
2026-04-26 12:58 -3.20119 -60.20230 2890 ft 188 kts 75°
2026-04-26 12:59 -3.19782 -60.19061 2891 ft 168 kts 73°
2026-04-26 12:59 -3.19456 -60.17962 2891 ft 161 kts 73°
2026-04-26 12:59 -3.19145 -60.16891 2894 ft 158 kts 74°
2026-04-26 12:59 -3.18861 -60.15851 2896 ft 156 kts 75°
2026-04-26 13:00 -3.18592 -60.14797 2898 ft 155 kts 76°
2026-04-26 13:00 -3.18335 -60.13736 2904 ft 159 kts 76°
2026-04-26 13:00 -3.18079 -60.12644 2876 ft 167 kts 77°
2026-04-26 13:00 -3.17807 -60.11490 2688 ft 169 kts 77°
2026-04-26 13:01 -3.17537 -60.10365 2453 ft 162 kts 76°
2026-04-26 13:01 -3.17273 -60.09299 2212 ft 157 kts 76°
2026-04-26 13:01 -3.17014 -60.08274 1981 ft 148 kts 76°
2026-04-26 13:01 -3.16766 -60.07296 1770 ft 142 kts 76°
2026-04-26 13:02 -3.16528 -60.06352 1587 ft 137 kts 76°
2026-04-26 13:02 -3.16302 -60.05451 1420 ft 131 kts 76°
2026-04-26 13:02 -3.16090 -60.04596 1240 ft 122 kts 76°
2026-04-26 13:02 -3.15878 -60.03746 1115 ft 134 kts 76°
2026-04-26 13:03 -3.15638 -60.02784 1015 ft 148 kts 76°
2026-04-26 13:03 -3.15386 -60.01774 785 ft 151 kts 76°
2026-04-26 13:03 -3.15136 -60.00773 553 ft 144 kts 76°
2026-04-26 13:03 -3.14899 -59.99824 363 ft 137 kts 76°
2026-04-26 13:04 -3.14690 -59.98985 273 ft 88 kts 76°
2026-04-26 13:04 -3.14625 -59.98722 273 ft 24 kts 76°
2026-04-26 13:04 -3.14595 -59.98602 273 ft 17 kts 76°
2026-04-26 13:04 -3.14548 -59.98529 273 ft 16 kts
2026-04-26 13:05 -3.14450 -59.98542 273 ft 12 kts 355°
2026-04-26 13:05 -3.14394 -59.98551 273 ft 0 kts 347°